Wind_Speed
16 19 21 22 21 20 18 16 15 13 12 11 12 13 16 18 20 22 22 22 22 21 20 19 18 17 17 17 16 15 15 15 14 14 14 14 14 14 14 13 12 11 10 11 11 11 11 11 10 12 12 11 11 11 12 14 16 17 16 15 15 14 13 13 13 12 13 14 15 15 15 15 14 14 15 14 14 14 16 15 11 12 13 13 13
20 20 21 22 21 20 18 17 15 14 13 12 12 14 16 19 21 22 23 23 22 21 20 18 17 17 17 17 14 13 14 14 14 14 13 13 13 13 13 12 11 11 10 9 11 12 12 10 9 11 12 11 11 12 14 16 17 17 16 15 15 14 13 13 13 13 14 15 15 16 16 16 14 14 14 13 14 15 15 15 13 13 15 14 14
22 20 21 22 21 20 18 17 15 14 13 12 13 15 17 19 22 23 23 23 22 21 19 17 17 17 17 15 13 12 13 13 14 14 13 12 12 11 11 11 10 10 10 9 10 12 12 10 9 10 11 11 11 13 14 15 16 17 16 16 15 15 14 14 15 14 15 15 15 15 15 15 14 13 13 13 13 14 15 16 17 17 16 15 15
21 20 21 22 21 20 18 17 16 15 13 13 14 16 18 20 22 22 23 23 21 19 18 17 17 16 14 12 12 12 11 11 12 13 13 12 11 10 10 10 9 8 9 8 8 10 11 10 10 11 12 11 12 13 14 15 15 15 15 15 15 15 15 15 15 15 15 16 18 15 12 12 13 14 13 13 14 14 14 16 18 18 18 17 16
22 21 21 22 21 20 18 18 16 15 14 14 15 16 18 20 21 22 22 21 19 18 17 16 15 14 13 12 11 11 11 11 12 12 12 11 10 10 9 9 8 8 8 8 7 9 11 10 11 11 12 12 12 13 13 14 14 14 14 14 14 15 15 15 15 15 16 19 20 13 8 9 11 13 13 13 14 13 14 15 17 18 18 18 17
22 21 21 23 22 20 19 18 17 15 15 14 15 16 18 19 20 21 20 19 18 17 16 15 14 13 13 12 12 11 11 11 11 11 11 10 10 9 9 8 7 7 7 7 7 8 9 10 11 11 13 13 13 13 13 12 13 13 13 13 13 14 14 14 14 15 18 19 17 11 8 8 8 11 13 13 13 13 14 15 17 18 18 19 18
21 21 20 23 23 21 19 17 17 16 15 15 16 17 18 19 19 20 19 19 18 16 16 15 14 14 13 12 12 11 11 11 11 11 11 10 10 10 9 8 7 7 7 8 8 8 9 9 11 11 13 14 13 13 12 12 12 12 12 12 12 12 12 13 12 14 18 15 10 9 8 6 6 10 12 13 13 13 14 14 15 17 18 18 18
20 20 19 22 23 21 19 18 17 16 16 16 16 17 18 19 19 19 19 19 18 17 16 15 14 13 13 12 12 12 12 13 12 12 11 11 11 11 10 9 8 7 7 7 8 9 10 10 10 11 14 15 14 14 13 11 11 11 10 11 11 11 11 12 12 14 17 12 9 9 8 6 6 8 11 13 13 13 13 13 14 16 18 18 18
19 19 19 20 21 21 20 18 18 17 17 17 17 18 18 18 18 19 19 18 17 16 15 15 14 13 12 12 12 13 13 13 13 12 11 11 11 11 9 8 8 8 8 7 7 8 9 10 10 11 14 15 15 14 13 11 10 10 9 9 10 10 10 10 11 15 14 10 9 8 8 7 5 7 11 12 12 12 13 12 13 16 17 18 18
19 19 19 18 21 22 21 20 19 18 18 18 18 18 18 17 18 18 17 17 16 16 15 14 13 13 12 12 12 13 13 12 13 13 11 11 11 10 9 7 6 7 8 8 8 7 8 9 10 11 15 16 16 15 14 12 9 8 8 8 8 9 9 9 11 13 10 8 8 8 11 10 4 6 10 11 11 11 12 12 12 15 16 17 17
19 19 18 18 21 22 21 21 20 19 18 18 18 17 17 16 16 16 16 16 15 15 15 14 13 13 12 12 12 12 13 12 11 11 11 11 10 9 8 6 6 6 7 8 8 8 8 9 9 11 15 17 16 16 15 13 11 9 8 8 7 8 8 9 11 9 8 7 7 10 11 9 5 7 10 11 12 11 11 12 13 13 15 16 17
18 19 18 18 20 21 21 20 19 19 19 18 18 17 16 15 15 14 14 14 15 15 15 14 13 13 12 12 12 11 12 11 10 10 10 9 8 8 7 6 6 6 6 7 8 8 8 9 9 9 12 16 17 16 15 14 12 10 9 8 7 7 6 8 10 7 7 5 7 11 9 6 6 9 10 11 11 11 11 11 12 13 14 15 15
18 19 19 19 19 20 20 19 19 19 19 18 18 17 16 15 14 13 13 13 14 15 13 12 13 13 12 12 11 10 10 10 10 9 9 8 7 7 7 6 6 7 7 7 8 8 8 8 8 8 9 12 16 15 14 14 12 11 10 10 8 6 5 7 9 6 5 5 8 9 7 6 6 9 11 11 11 10 10 11 11 12 13 14 14
19 19 19 19 19 20 19 19 19 19 19 18 18 17 16 14 13 13 13 13 14 14 13 12 13 13 13 11 11 10 10 9 9 9 8 8 8 8 7 6 6 6 6 6 7 7 7 8 8 7 7 8 12 15 14 14 13 12 11 10 8 6 5 7 7 6 5 6 8 7 6 6 6 9 10 9 10 10 10 9 10 11 12 13 13
19 19 18 18 19 20 19 19 20 20 19 18 17 16 14 14 12 12 12 13 13 13 13 13 14 13 12 11 11 11 10 9 9 9 8 8 7 7 7 7 6 6 5 5 5 5 6 7 7 7 7 7 9 14 15 13 13 12 12 11 8 7 6 7 5 4 5 5 8 8 5 4 5 7 9 9 9 9 9 9 9 10 11 12 13
19 18 18 18 18 20 20 20 20 19 18 17 16 14 14 13 12 12 12 13 13 13 13 14 14 13 12 11 11 10 9 9 9 8 9 8 8 7 7 8 7 6 4 4 4 4 4 5 5 5 5 6 7 13 15 13 12 12 12 11 9 7 7 8 4 3 5 4 6 7 3 3 5 6 8 8 8 8 8 8 8 9 10 11 12
19 19 18 18 18 19 19 20 20 18 16 15 14 14 14 13 12 12 13 13 13 13 14 15 14 13 13 12 10 10 9 9 8 8 8 8 8 8 8 8 8 6 4 3 3 2 3 3 3 3 3 4 5 9 14 12 10 11 12 12 10 8 7 7 5 3 4 4 6 6 2 2 4 5 6 7 8 7 6 7 7 8 9 10 11
18 18 17 18 18 19 19 19 20 19 17 15 14 14 13 12 12 12 13 13 13 13 14 14 13 13 13 11 10 10 9 8 8 7 7 7 7 8 8 8 7 6 4 3 2 2 1 2 2 2 3 3 4 6 9 11 10 9 10 11 10 9 7 6 5 3 3 4 6 5 3 2 2 4 5 5 6 7 6 6 6 7 7 8 10
17 16 16 17 18 19 19 19 20 20 18 18 17 15 13 12 11 12 13 13 13 13 12 12 12 12 12 11 10 10 9 8 8 7 7 6 6 6 7 7 7 6 4 3 3 2 2 1 1 2 3 3 3 5 6 8 10 9 8 9 9 9 7 6 5 3 2 4 5 3 2 1 1 3 3 3 4 6 6 6 5 5 6 7 8
16 16 15 16 17 17 18 18 20 20 19 18 16 15 13 12 12 13 14 13 13 13 12 12 12 12 11 11 10 9 9 9 8 7 6 6 5 5 6 7 7 7 5 4 3 2 3 3 2 1 2 2 3 3 5 6 7 8 8 7 7 7 6 6 6 5 3 3 5 3 1 1 1 2 2 2 3 4 5 5 4 4 5 6 6
16 16 15 16 16 15 17 18 19 19 18 17 16 14 13 12 12 14 14 12 13 13 12 12 12 12 12 10 9 9 9 8 8 7 6 5 5 6 6 7 8 8 7 5 4 3 2 3 3 2 1 1 1 2 4 5 6 5 6 7 7 6 6 6 5 5 3 2 4 1 1 1 0 2 2 2 2 2 2 3 4 3 4 5 6
16 16 15 16 15 15 15 16 17 18 18 16 15 14 13 13 13 14 14 14 13 13 13 13 13 12 11 9 7 7 7 7 7 7 6 5 5 5 6 7 8 9 8 7 5 3 2 2 2 2 1 1 1 0 2 3 5 5 4 5 6 6 6 7 5 4 3 3 3 2 2 1 1 2 1 1 1 1 1 2 3 3 4 5 5
17 16 16 15 15 15 15 15 16 18 17 15 14 14 14 13 14 15 15 15 14 14 14 13 13 12 10 9 7 7 6 7 7 6 5 4 4 4 5 6 8 9 8 8 6 5 3 2 1 1 2 2 2 2 1 1 3 4 4 3 4 6 7 7 6 4 3 3 3 1 2 2 2 1 1 1 1 2 1 0 2 2 4 5 4
17 17 17 15 15 15 15 16 16 17 16 15 15 14 13 12 13 14 15 15 15 14 14 13 12 11 10 9 8 8 7 5 5 4 4 3 3 4 5 6 8 9 9 8 7 6 5 3 2 1 1 2 2 2 3 3 3 3 4 3 4 7 7 7 6 5 4 4 4 2 2 2 3 2 1 0 1 2 2 1 1 1 3 5 5
17 17 16 15 16 16 17 18 18 17 16 15 14 13 13 14 14 13 13 14 14 13 13 12 11 10 10 8 7 7 6 5 5 4 4 3 3 4 4 6 7 8 9 9 8 8 6 5 4 2 1 1 3 3 4 4 4 4 4 5 5 6 7 7 7 6 5 5 4 3 3 2 3 3 3 1 1 2 3 2 3 2 2 5 6
17 16 16 16 16 17 17 18 18 17 15 15 15 14 14 15 15 13 11 11 11 11 10 10 9 9 8 7 7 6 6 5 5 5 5 4 3 3 4 5 6 7 9 9 9 8 7 6 5 4 3 3 3 3 3 3 3 3 5 6 5 5 6 7 7 6 6 7 6 4 4 2 3 4 4 4 2 2 3 4 4 4 3 5 7
17 17 17 16 15 15 15 16 16 16 15 15 15 13 13 14 14 13 11 10 9 9 9 8 8 8 7 7 7 7 6 5 4 5 4 3 3 4 4 5 7 7 8 9 8 8 7 7 6 5 4 4 3 3 3 3 3 4 5 5 5 5 5 6 6 6 6 7 6 5 6 4 3 3 4 5 3 3 3 5 5 5 5 5 8
18 18 16 15 15 15 15 16 16 14 14 15 14 12 12 13 13 11 10 10 10 9 8 8 7 7 8 8 8 7 6 5 4 4 3 4 5 5 5 6 8 8 8 9 8 7 7 7 6 6 5 4 4 4 4 4 4 4 5 5 6 6 5 5 6 6 6 6 7 6 6 5 4 3 4 4 4 4 3 4 5 6 6 6 8
18 19 17 15 15 16 16 16 15 13 13 14 14 12 10 10 10 9 9 9 9 9 8 8 7 7 8 7 7 7 6 5 5 4 5 6 6 6 6 7 8 9 9 9 8 7 7 7 6 5 5 5 5 6 6 4 4 4 5 5 6 6 6 5 5 6 6 5 6 6 5 6 5 3 4 4 4 4 4 4 4 5 6 6 7
18 18 17 16 15 15 16 16 17 15 14 14 13 11 9 9 9 8 8 8 8 7 6 7 7 7 7 7 7 7 7 8 7 6 8 8 7 6 6 7 8 10 10 9 9 8 7 7 6 6 6 6 6 6 5 5 4 4 5 5 6 6 6 6 6 6 5 5 6 5 4 5 6 4 4 4 4 4 3 4 4 5 5 6 7
18 17 15 15 16 16 16 18 18 16 14 13 12 10 9 8 7 6 6 6 5 6 6 6 6 6 7 9 9 8 8 8 8 8 10 10 8 8 7 7 8 9 10 10 10 9 8 8 8 7 7 6 6 5 4 5 4 4 5 6 6 5 5 6 6 6 5 5 6 6 5 5 5 5 4 3 4 3 3 3 3 4 5 5 6
17 15 15 16 18 17 17 17 17 16 15 14 12 11 9 8 6 5 4 5 5 6 7 7 7 7 8 9 9 9 8 8 8 10 11 10 9 8 8 8 8 9 9 9 10 10 10 9 9 8 7 6 6 5 5 5 4 5 5 5 6 5 5 6 6 6 6 5 6 7 6 5 5 4 4 3 2 2 2 3 3 3 5 5 6
19 18 17 19 20 18 17 18 17 17 16 14 13 10 8 7 6 5 5 5 6 7 8 8 6 6 6 6 7 7 7 7 7 9 10 9 9 8 7 7 7 8 9 9 10 11 11 10 9 8 7 5 5 5 5 4 4 5 5 6 6 5 5 5 5 6 7 6 7 7 5 5 6 5 3 2 1 1 1 2 2 3 4 5 5
22 23 21 22 21 19 19 19 18 17 16 14 12 9 8 7 6 6 5 6 6 6 6 6 4 4 5 5 6 5 4 6 6 7 9 8 8 7 6 7 7 7 8 9 10 11 11 10 9 8 6 5 5 5 5 4 4 4 5 6 5 5 5 5 5 6 7 7 7 6 4 5 6 5 4 2 1 1 0 1 2 2 2 2 3
22 25 24 24 22 21 20 20 18 17 15 14 12 10 9 8 6 5 5 4 3 2 3 3 4 3 3 4 4 2 2 4 4 5 7 7 7 7 7 7 6 6 7 9 10 10 10 9 9 8 6 6 6 6 5 5 5 4 5 5 5 5 5 5 5 5 6 7 7 7 7 6 6 6 5 4 2 1 1 1 1 1 1 1 1
22 23 24 23 22 21 19 18 18 16 15 14 12 10 9 8 6 5 3 2 2 1 1 2 3 3 3 3 2 1 2 3 3 3 6 7 7 8 8 7 7 6 7 9 9 9 8 7 8 8 6 6 6 6 6 6 5 5 4 4 5 5 4 4 5 4 6 8 8 9 8 7 8 9 7 5 5 3 1 0 1 2 2 3 3
21 22 23 23 21 20 18 17 17 15 14 14 12 11 9 8 7 6 5 4 4 3 2 1 1 2 2 2 1 1 1 2 2 3 5 6 7 8 8 7 7 7 7 8 8 8 8 7 7 7 7 7 7 7 6 6 5 5 5 5 5 5 5 5 6 7 7 7 9 9 7 7 9 10 10 6 6 7 4 1 1 3 3 4 5
21 21 21 22 21 20 18 16 16 16 15 15 13 11 10 9 8 7 7 6 5 5 4 3 1 1 1 1 0 0 0 0 0 1 3 5 6 7 7 6 7 8 7 7 7 8 8 7 7 7 8 7 7 7 6 6 5 5 5 6 6 6 6 8 8 8 7 7 9 9 6 7 9 10 11 9 8 9 8 5 2 2 3 4 5
21 20 20 21 19 18 19 18 18 19 18 16 14 12 11 10 9 9 8 7 6 7 6 4 3 2 2 2 1 0 0 0 1 0 1 3 5 6 6 6 7 8 6 6 7 7 7 7 6 7 9 8 9 10 9 8 7 6 6 6 5 5 6 7 8 8 8 9 9 9 7 6 7 9 11 12 11 9 7 7 5 3 1 1 3
23 23 21 19 17 17 20 21 20 19 17 15 14 12 11 10 9 9 7 6 6 7 7 5 4 3 2 3 2 1 1 1 1 1 1 1 2 3 4 5 6 7 7 6 6 7 7 6 5 6 7 8 9 10 10 9 8 7 6 6 5 5 5 5 5 6 8 9 8 8 8 6 6 8 9 12 12 10 8 7 7 7 6 6 4
23 24 22 17 16 17 18 18 18 17 15 15 14 13 12 10 9 9 8 8 7 7 6 5 4 3 2 0 2 3 2 2 3 2 2 1 1 0 1 2 3 5 7 7 6 6 6 5 6 6 5 6 7 7 8 8 7 6 6 5 5 4 4 4 4 4 6 7 7 7 7 7 7 7 8 9 9 9 10 9 7 7 8 9 8
23 23 20 15 16 17 16 16 16 15 14 14 14 13 12 11 10 10 10 9 8 8 7 5 5 5 5 5 5 6 5 4 4 4 3 2 1 1 1 1 1 2 5 5 4 5 5 5 5 5 4 5 5 6 7 6 5 5 5 4 3 3 3 4 4 5 4 5 5 5 5 5 5 6 8 8 8 8 10 11 10 9 8 9 9
23 21 19 17 17 18 17 16 17 15 14 14 14 13 12 11 11 11 12 11 10 10 9 8 8 7 7 7 6 6 6 5 5 5 3 3 3 1 0 0 1 1 2 3 3 3 4 4 4 4 4 5 5 6 7 7 5 4 5 5 4 4 5 6 6 5 4 5 5 4 4 4 4 5 7 9 10 10 11 11 11 11 9 10 10
21 22 21 19 18 20 19 18 18 17 15 16 15 13 13 13 11 12 12 11 11 11 10 10 10 9 8 7 6 6 6 5 4 4 3 3 4 4 3 2 1 0 1 2 2 2 3 4 4 4 4 5 5 6 7 7 6 5 6 4 3 5 5 6 8 4 3 4 4 3 4 5 4 5 7 10 11 10 11 10 9 8 6 7 9
22 24 23 21 19 20 20 20 20 18 16 17 17 15 14 14 13 13 12 12 12 11 10 10 9 8 8 8 7 7 7 6 5 4 3 2 3 5 5 4 2 2 1 1 1 1 1 2 3 4 5 5 5 6 7 8 8 7 6 4 4 5 3 1 4 3 2 3 4 4 5 5 5 6 7 9 9 9 9 8 7 7 5 4 5
22 24 24 21 19 19 19 19 20 20 17 15 16 15 14 13 13 13 13 13 12 11 10 9 9 7 7 8 8 7 7 6 5 4 3 4 5 5 5 4 2 2 1 0 1 1 1 1 2 3 4 5 5 5 6 7 7 7 7 6 6 5 2 2 2 3 2 3 3 4 4 4 5 4 3 4 5 6 7 6 6 7 6 5 4
20 23 23 21 20 19 18 19 20 20 19 16 15 15 13 13 13 12 12 13 13 12 10 10 9 8 8 9 9 8 8 7 6 5 4 4 5 6 6 4 3 3 2 1 1 0 1 1 1 1 1 2 3 4 5 5 5 6 7 7 8 9 6 5 3 2 2 2 1 2 2 2 2 2 1 1 2 3 4 2 1 2 3 3 3
17 20 22 22 21 19 18 19 20 20 19 18 15 14 14 15 15 13 12 13 12 12 11 10 10 10 11 11 9 8 9 8 7 6 6 5 5 6 5 5 5 4 4 2 2 1 1 1 1 1 1 0 1 2 4 5 4 5 6 6 7 9 8 7 6 5 6 4 4 2 1 1 1 2 2 2 1 2 2 3 3 1 1 1 1
16 18 20 20 20 18 17 17 17 18 18 17 15 13 13 15 16 14 13 13 11 12 11 10 10 11 12 12 10 9 9 10 9 8 7 7 6 6 5 5 4 4 5 3 2 2 1 1 1 1 2 2 3 3 3 4 4 4 5 6 5 5 5 6 7 7 6 2 4 4 3 2 2 2 2 2 1 1 1 3 3 2 1 1 1
16 16 15 17 17 16 16 15 13 13 14 16 15 12 12 15 15 13 13 13 12 12 11 11 11 11 12 13 12 10 9 10 10 9 8 7 7 7 6 5 4 4 4 4 2 2 1 1 1 1 1 2 3 3 2 3 4 5 5 5 4 3 2 2 4 5 3 1 3 5 5 5 6 7 6 5 4 2 1 2 3 3 2 2 2
14 14 14 14 18 19 17 15 14 14 14 14 14 12 11 14 14 11 11 11 12 11 11 12 11 11 12 12 12 11 10 11 11 11 10 9 9 9 8 7 6 5 5 6 6 5 3 3 3 2 2 2 2 1 2 2 2 3 4 4 3 2 2 2 3 3 3 3 4 6 7 7 9 9 9 9 8 7 5 4 5 4 4 4 5
Wind_Direction
166 174 171 170 172 171 167 163 158 149 143 139 139 142 150 153 155 158 157 156 156 155 151 148 147 147 142 139 137 135 136 139 141 140 144 142 141 140 142 145 147 147 142 148 158 156 147 148 150 142 129 118 112 108 106 105 104 100 99 95 92 90 89 89 87 85 84 85 85 84 85 88 90 89 86 84 81 78 78 71 53 45 53 67 79
164 168 169 170 173 171 166 163 158 149 144 141 139 141 148 153 157 157 157 158 158 156 153 152 152 150 144 143 138 137 142 144 145 145 146 145 145 145 145 146 145 150 154 158 168 171 163 163 160 146 132 122 118 114 110 106 104 102 100 96 93 91 91 92 92 90 86 84 83 81 81 84 86 88 86 83 81 78 78 79 72 56 56 68 82
164 164 168 170 172 171 166 163 158 150 147 143 139 140 147 152 156 157 158 160 160 157 156 156 154 150 145 143 141 142 146 148 150 149 149 147 147 147 147 147 147 152 160 166 173 178 179 177 168 154 138 129 124 118 115 109 106 105 101 97 94 90 90 91 94 92 88 88 84 77 76 81 83 84 86 84 81 77 72 71 70 62 58 66 79
162 163 167 169 171 170 167 164 158 153 150 146 141 139 145 151 156 157 159 162 161 160 158 155 151 149 146 146 147 146 148 151 152 152 153 151 150 150 149 150 152 154 156 164 170 175 183 184 176 162 142 132 127 124 121 115 111 108 105 102 97 92 89 89 91 91 89 86 78 71 69 77 80 79 81 82 79 75 72 68 67 63 60 66 75
161 163 167 168 169 169 168 164 160 157 154 148 143 138 143 149 154 158 161 164 162 160 158 154 151 150 150 151 150 150 153 152 153 154 154 151 151 151 152 156 155 152 149 155 162 169 178 180 176 162 145 137 132 131 126 120 117 113 110 106 102 97 93 89 90 92 88 81 77 75 68 68 73 76 78 80 80 75 73 69 65 64 62 65 69
163 164 166 167 166 168 169 166 163 160 158 150 144 141 141 145 151 156 160 161 161 160 157 155 153 152 151 149 149 152 153 149 149 149 149 149 148 148 148 152 155 155 151 154 160 166 175 175 172 163 150 144 138 136 130 125 121 116 114 108 105 99 96 92 92 94 85 75 78 87 78 64 64 73 77 78 80 77 73 71 66 63 63 64 65
161 163 166 169 165 167 170 167 165 163 159 152 147 143 141 143 147 151 154 155 157 156 153 152 149 149 147 145 147 147 146 144 142 141 144 145 143 138 132 122 130 145 150 157 162 166 174 174 171 165 154 149 144 140 135 130 125 120 116 111 107 102 100 95 92 92 85 77 78 88 89 79 68 71 75 77 77 77 74 73 70 66 64 65 65
158 161 165 171 167 167 170 169 168 166 159 153 148 144 142 143 146 148 150 150 151 151 150 148 145 144 142 141 142 140 141 141 138 138 138 139 138 136 130 107 101 117 132 146 158 164 170 174 174 165 156 154 150 149 143 137 133 126 121 115 110 105 102 95 91 88 83 86 94 89 91 79 69 75 73 77 78 79 79 75 74 71 66 65 66
157 160 163 170 170 168 170 171 170 165 159 154 150 146 144 144 146 147 148 149 149 150 149 146 144 141 138 139 140 141 141 142 141 138 133 133 133 134 135 113 95 103 115 129 145 156 162 169 173 160 156 159 157 156 152 147 145 135 129 120 113 110 103 100 96 88 80 83 91 92 100 82 56 73 74 77 80 77 78 76 77 76 71 68 68
157 161 163 169 173 170 171 172 168 164 159 156 152 148 146 145 146 149 150 151 151 151 150 146 144 141 139 139 142 144 144 146 143 136 132 132 128 128 133 121 103 105 112 125 139 147 152 160 165 158 157 163 163 162 160 158 156 146 139 127 120 113 105 101 92 84 83 85 91 105 116 113 92 77 81 81 80 76 75 77 79 78 76 72 72
162 163 163 172 175 171 172 172 168 165 162 159 156 153 149 147 148 150 152 153 155 155 153 148 145 143 141 142 147 148 146 145 139 134 134 132 129 129 133 126 115 115 117 123 134 145 150 153 157 160 162 165 168 169 166 164 161 157 151 141 131 116 110 103 92 82 84 87 90 89 89 98 95 82 85 85 83 82 81 81 80 80 79 76 75
164 163 166 174 175 172 171 172 170 166 164 163 160 157 154 151 150 151 156 158 162 161 157 151 148 146 145 148 151 153 151 144 139 140 135 130 128 130 137 129 120 124 125 125 130 139 148 153 156 162 166 166 171 172 169 168 164 164 161 153 145 126 114 97 91 88 93 100 94 87 81 80 81 80 84 86 85 84 83 83 81 81 82 80 79
161 162 170 172 173 172 171 171 171 169 167 165 161 159 157 156 157 158 161 165 168 166 161 155 151 151 151 153 153 155 156 147 145 144 132 130 134 137 142 131 126 130 131 135 135 138 147 158 165 171 174 170 169 170 172 171 167 170 169 160 156 142 118 96 96 100 101 104 92 91 107 101 76 78 81 85 88 84 83 84 83 83 83 84 82
160 162 171 170 171 170 171 173 172 172 169 167 165 163 162 163 165 167 168 171 172 168 164 160 157 159 158 157 157 157 157 151 148 143 138 143 145 145 145 135 131 132 137 144 145 148 152 162 176 187 193 184 168 167 175 174 172 178 175 167 163 155 130 92 93 107 95 94 95 85 84 79 65 75 76 77 86 87 85 85 84 85 85 85 85
161 164 171 170 169 169 172 174 174 173 172 172 171 170 171 172 173 174 175 174 173 170 169 168 165 163 158 158 160 158 155 153 148 144 143 143 141 142 141 139 134 129 134 149 159 166 168 173 182 193 199 198 175 167 174 175 174 179 179 171 163 164 146 98 86 111 96 87 99 94 80 71 64 69 68 64 73 85 88 88 85 84 85 86 87
165 168 168 165 165 167 170 173 175 174 174 173 172 175 177 177 178 177 176 174 173 173 173 172 169 162 155 156 157 153 152 153 151 148 143 140 138 140 144 145 141 132 128 142 161 173 182 187 192 204 200 198 186 168 171 177 171 169 175 172 163 165 146 121 126 124 101 94 94 94 95 88 80 72 68 56 59 80 89 88 87 85 86 86 87
167 169 164 161 162 164 167 172 175 174 173 171 175 181 179 176 176 176 173 171 171 173 173 172 167 160 156 155 152 152 154 154 153 150 145 143 141 143 149 149 144 140 135 136 146 167 190 203 209 223 218 205 200 173 167 176 175 165 167 169 165 163 151 134 134 128 125 129 101 99 112 87 92 86 76 62 59 72 81 86 86 86 87 86 86
163 168 164 159 159 163 166 172 172 172 171 175 184 182 178 175 173 173 168 168 170 172 173 170 163 158 156 152 150 152 152 152 153 149 146 144 144 146 151 150 149 151 151 150 143 144 177 212 218 219 234 226 219 200 176 175 177 172 167 167 165 164 166 143 128 150 151 122 97 108 125 73 82 87 78 74 68 64 69 86 86 84 88 87 87
159 165 162 158 159 161 166 171 169 171 176 182 185 177 174 174 172 170 165 167 169 171 172 167 162 158 154 150 150 151 151 154 153 150 150 150 152 153 154 157 158 162 163 160 149 126 118 144 188 198 217 230 226 226 213 191 180 177 175 173 167 166 168 142 134 155 128 108 105 119 119 74 94 91 74 76 78 69 65 79 91 87 88 89 88
157 161 161 160 160 160 164 171 172 176 182 183 179 172 173 173 171 166 163 165 164 165 167 167 165 159 155 151 150 152 153 154 151 148 152 157 165 167 162 162 161 165 167 165 154 125 108 102 106 148 182 220 235 232 234 226 203 185 178 180 173 172 173 156 151 141 137 149 130 126 95 111 147 90 72 62 70 76 68 70 91 103 93 94 93
159 163 163 160 161 160 163 171 176 181 184 179 173 170 171 171 167 161 160 163 164 164 168 173 167 160 154 150 156 158 154 151 147 145 147 159 170 172 168 166 163 163 166 167 161 138 117 102 94 90 99 188 233 251 247 241 232 212 186 177 171 181 195 186 165 139 147 139 125 157 353 74 80 71 67 52 40 53 76 69 85 125 118 105 102
161 164 160 160 162 161 164 171 176 183 184 176 171 167 166 170 163 160 163 163 168 170 171 171 163 160 155 154 162 154 152 152 146 144 149 164 172 174 173 172 168 166 168 168 164 156 142 116 98 95 82 67 91 195 276 261 244 235 207 179 173 187 203 205 189 155 149 128 154 259 351 28 23 61 53 46 0 338 24 67 76 121 141 126 114
164 162 156 159 160 159 164 169 175 185 183 173 171 166 163 166 160 163 167 166 172 173 166 164 161 162 158 160 165 153 162 161 148 147 151 159 170 175 175 177 174 171 172 170 168 170 167 156 133 116 101 81 95 127 151 236 242 243 230 187 186 195 198 203 193 173 171 167 192 267 6 354 9 52 50 46 316 305 298 265 84 103 141 148 132
165 159 154 157 157 157 163 169 175 181 179 174 175 170 160 161 167 169 169 168 172 167 159 161 165 164 163 170 170 167 177 166 144 146 148 154 178 182 179 181 179 177 178 176 175 177 177 179 183 169 116 114 136 150 157 193 209 221 225 194 201 202 194 196 190 183 191 202 218 273 330 344 356 347 346 29 264 270 266 242 186 110 133 163 157
163 160 154 156 159 160 165 171 175 175 176 175 175 175 164 166 179 177 171 169 165 160 158 163 168 167 170 176 175 180 185 173 162 165 162 162 185 190 188 188 185 184 184 184 183 183 182 184 191 190 196 167 173 185 177 193 201 199 209 206 213 206 193 195 196 192 194 217 239 274 290 329 345 334 328 281 270 272 249 240 218 185 148 173 173
161 161 156 157 162 166 168 170 171 172 174 172 174 179 170 170 178 175 174 171 160 159 162 163 170 172 174 180 186 197 201 188 176 179 178 173 190 199 203 198 193 192 190 194 193 189 189 187 194 197 206 212 212 228 213 200 191 201 217 212 215 214 207 205 205 199 199 225 243 271 278 295 329 337 330 302 286 283 248 240 233 205 181 180 182
161 159 155 157 160 162 164 167 170 171 174 172 176 178 171 174 172 169 176 172 162 166 166 167 176 179 184 193 196 204 211 203 186 187 186 182 205 209 211 206 199 200 196 203 202 193 195 194 197 202 206 211 213 232 239 225 192 193 219 218 214 216 219 213 208 202 202 226 235 255 273 280 309 328 328 310 289 283 253 235 232 212 196 185 186
162 157 155 158 157 158 161 166 167 167 174 175 179 179 178 183 172 168 178 170 166 173 177 181 186 189 198 203 204 206 207 207 205 210 209 205 219 217 215 207 197 202 203 204 204 197 200 204 207 204 203 208 214 209 201 227 216 190 207 218 218 217 222 214 205 205 200 221 230 238 264 274 286 306 312 305 289 277 245 227 228 217 204 190 189
158 155 159 162 157 161 168 170 168 169 178 178 180 185 187 188 175 172 179 170 170 178 183 187 192 201 209 211 210 210 205 211 214 218 232 229 228 222 214 207 198 200 203 203 203 203 206 214 217 207 207 208 215 212 195 211 223 203 206 213 217 217 223 216 203 211 201 207 227 230 251 268 273 287 301 302 290 272 232 213 225 227 213 199 198
155 161 167 169 164 167 174 178 179 179 185 184 180 182 188 189 181 178 177 172 175 179 186 194 203 212 222 221 217 217 216 220 222 229 242 242 239 232 220 212 206 201 199 200 203 205 207 215 214 205 213 216 219 221 198 195 208 207 208 208 214 214 221 219 204 211 208 200 223 231 232 257 266 269 288 303 297 281 238 209 219 234 222 208 207
158 166 172 177 175 174 179 184 184 183 187 188 180 180 188 189 185 181 175 177 183 187 195 204 215 222 231 232 230 233 234 233 237 243 244 243 241 241 234 215 207 206 201 201 204 203 201 208 209 204 209 210 214 218 192 187 199 204 206 203 212 213 215 220 211 213 212 204 222 237 232 238 254 255 265 290 298 287 250 218 216 230 227 211 207
171 176 185 188 184 181 184 183 183 184 184 182 179 182 189 189 188 185 182 195 206 205 204 207 216 225 230 234 238 239 239 241 246 247 243 241 236 235 236 217 202 209 207 203 205 201 197 201 207 209 210 203 202 204 190 185 187 194 200 200 209 214 216 221 218 218 218 220 231 239 239 236 240 245 249 265 286 292 262 231 215 211 214 208 204
180 183 190 188 188 188 183 180 183 184 181 181 179 179 187 194 191 185 190 206 213 209 209 214 220 231 234 235 244 242 236 240 247 249 242 236 232 228 228 217 207 213 211 206 207 204 199 199 203 206 205 194 192 196 186 183 183 183 187 192 205 208 215 226 224 226 224 230 240 238 242 244 239 231 224 245 258 273 267 226 207 197 203 208 213
181 180 185 186 188 191 184 181 183 181 182 183 177 175 186 194 192 186 193 201 201 204 211 224 233 236 244 250 255 252 236 239 252 253 242 234 229 226 222 217 217 217 215 215 212 210 207 201 202 202 194 181 188 194 180 180 180 174 178 181 199 208 210 221 225 234 230 226 232 228 222 232 243 239 204 194 161 127 201 188 187 193 192 192 206
183 180 184 185 185 189 187 181 180 181 185 184 176 177 182 181 182 181 191 192 184 216 240 261 271 258 267 276 269 277 251 256 278 258 237 230 224 225 226 223 221 218 221 222 218 219 215 206 204 201 190 180 189 196 186 187 181 174 179 173 185 203 205 219 224 233 237 232 228 222 218 213 234 253 226 210 218 166 124 158 135 143 136 119 156
185 185 186 184 184 188 184 179 182 184 181 180 177 177 174 169 170 166 172 153 139 173 271 291 294 291 299 292 275 305 279 278 294 240 221 221 219 225 230 229 227 222 222 221 218 225 222 212 212 204 193 186 191 199 194 195 190 184 183 176 187 193 192 216 222 222 231 235 229 224 227 218 219 230 222 223 239 226 163 97 91 90 79 68 66
185 190 187 184 186 186 184 182 185 183 175 176 175 171 166 161 159 156 153 141 145 153 146 188 276 289 286 287 290 321 284 267 255 223 216 219 221 228 231 230 234 230 226 225 226 232 223 214 219 212 202 197 199 206 201 197 196 196 197 195 202 200 196 210 217 221 226 234 235 230 233 237 238 234 222 222 242 236 217 191 83 72 79 74 64
184 187 188 189 189 186 184 183 181 178 175 175 168 161 159 158 160 158 150 145 149 144 136 147 150 244 253 234 266 36 0 305 255 225 223 226 225 231 233 232 241 241 233 232 235 237 228 222 222 211 208 205 205 207 202 199 192 196 211 213 217 218 217 224 227 227 226 231 235 229 222 235 251 253 238 228 235 237 227 220 213 88 90 93 79
182 183 189 192 191 183 175 175 177 174 173 171 164 161 161 161 160 153 149 146 144 140 139 145 149 177 206 223 226 127 298 302 58 94 215 235 238 241 244 241 244 242 236 237 241 242 240 239 227 209 213 213 212 213 212 214 208 203 214 222 228 230 230 233 230 225 225 229 233 234 231 236 247 254 251 244 243 246 236 228 223 213 248 141 118
186 188 193 192 188 180 172 175 177 170 168 168 164 163 161 158 151 143 141 135 132 135 140 145 149 165 207 247 246 141 203 197 122 108 117 214 242 247 252 250 248 240 234 237 249 251 246 243 227 215 221 218 219 223 225 226 222 220 225 231 234 230 225 224 221 223 224 222 220 225 227 230 238 246 257 256 256 259 251 241 229 216 230 240 215
191 193 195 190 182 181 177 175 172 165 168 169 161 159 155 148 138 135 138 132 125 122 123 132 136 139 155 148 82 102 116 127 132 130 105 77 52 342 257 248 245 236 234 233 240 252 247 232 224 226 221 213 220 226 226 227 223 226 231 235 237 228 219 204 190 207 222 219 215 220 226 230 240 249 255 259 264 270 271 271 263 236 225 233 239
190 193 193 187 178 179 179 175 170 164 170 170 157 151 148 141 137 139 139 133 127 125 125 126 121 117 116 107 98 101 98 92 109 125 136 135 86 15 22 23 264 238 246 243 238 243 239 224 223 230 217 211 225 221 217 220 217 223 223 221 224 217 217 202 187 194 203 214 219 225 235 238 253 263 261 266 268 274 284 288 286 283 264 245 247
188 191 190 186 177 177 181 179 174 168 172 171 156 148 143 136 141 144 139 135 132 133 132 122 114 108 102 103 106 107 102 87 86 102 122 146 158 183 189 345 328 281 237 228 226 229 228 222 215 216 216 219 229 224 220 214 204 225 234 224 215 219 217 199 194 203 206 215 222 228 238 240 257 267 266 271 273 277 289 290 291 296 282 254 246
191 191 192 191 182 181 186 181 177 174 173 169 156 152 150 140 140 137 131 131 127 124 123 116 111 106 99 101 105 109 111 101 86 87 97 130 157 175 186 198 215 226 180 165 185 211 207 215 213 205 216 228 236 238 234 222 209 223 242 238 225 242 236 192 181 190 225 231 229 240 239 230 249 265 261 264 267 271 281 288 292 295 282 255 244
193 191 193 195 188 187 189 183 182 181 176 172 162 158 157 148 141 135 129 126 121 118 119 113 104 100 102 105 105 109 113 108 95 84 66 81 130 155 165 177 187 194 180 136 142 175 157 199 214 206 210 221 230 244 246 236 225 219 229 240 233 251 283 212 184 200 241 234 216 231 238 229 241 258 261 262 261 260 266 276 281 278 271 248 237
195 194 196 198 194 193 193 188 190 187 182 177 166 161 159 148 139 136 135 130 127 128 127 118 112 110 108 106 107 111 110 104 100 88 59 53 67 88 113 134 159 184 206 160 94 63 57 94 219 217 215 217 214 232 247 244 237 223 219 227 228 231 286 313 250 237 258 248 230 235 237 236 242 248 268 273 267 264 265 267 268 266 261 255 254
197 198 200 201 200 200 199 197 197 194 187 181 170 165 161 146 135 135 138 138 137 137 131 120 119 119 109 104 105 108 108 106 107 102 86 76 69 70 81 100 121 139 155 194 205 180 85 102 162 200 225 236 210 213 235 237 234 228 221 223 230 231 235 248 240 226 239 213 202 241 235 230 225 191 166 244 255 271 282 305 320 269 253 265 286
201 204 204 204 205 206 207 204 203 201 193 184 173 169 165 149 139 141 145 143 138 131 123 116 115 113 109 109 107 106 114 117 114 109 101 96 95 94 95 100 107 109 111 145 174 169 167 112 106 130 149 240 187 196 224 225 216 216 215 217 235 237 236 240 230 228 235 198 145 121 82 266 233 196 189 192 223 275 329 26 50 97 173 106 70
207 208 204 204 205 208 212 207 205 204 199 192 178 170 168 154 146 149 148 142 135 122 115 111 110 110 108 112 116 115 119 122 118 115 105 100 104 107 109 111 112 98 81 85 132 136 130 111 101 125 159 162 168 184 203 211 205 201 205 208 221 229 236 239 224 223 242 221 143 131 109 82 60 86 135 154 205 258 346 34 49 57 40 20 30
214 207 198 201 204 210 212 204 199 197 194 192 183 173 169 161 152 150 146 137 130 120 113 111 110 111 108 109 116 117 118 121 121 119 110 105 114 117 120 127 127 102 67 53 63 88 110 101 63 27 89 143 174 194 188 189 193 191 190 191 193 195 212 228 201 201 226 226 132 130 115 98 83 82 94 96 80 58 33 43 49 39 21 6 357
204 184 179 195 206 212 214 210 209 207 199 192 186 181 175 166 154 143 138 131 126 121 115 114 115 116 114 111 118 123 125 125 121 117 110 105 111 118 121 123 121 108 86 77 79 83 94 94 81 77 72 72 76 77 89 118 149 159 159 160 173 183 185 178 166 168 163 136 128 119 112 103 95 93 96 94 85 72 64 63 56 43 37 38 32
Height
1512 1513 1514 1516 1518 1519 1522 1523 1525 1526 1527 1528 1529 1530 1531 1532 1534 1535 1536 1538 1539 1540 1541 1542 1542 1543 1544 1544 1545 1545 1546 1546 1547 1547 1548 1548 1548 1549 1549 1550 1550 1551 1552 1552 1553 1553 1554 1554 1554 1554 1554 1554 1554 1554 1554 1554 1554 1554 1554 1554 1554 1554 1554 1554 1554 1553 1553 1553 1552 1552 1552 1551 1551 1551 1551 1550 1550 1549 1548 1549 1549 1547 1545 1544 1543
1511 1513 1514 1516 1518 1520 1522 1523 1525 1526 1527 1528 1529 1531 1532 1533 1534 1536 1537 1538 1540 1541 1542 1542 1543 1543 1544 1545 1546 1546 1547 1547 1548 1548 1548 1549 1549 1550 1550 1551 1551 1552 1552 1553 1554 1554 1554 1554 1555 1555 1555 1555 1555 1555 1555 1555 1555 1555 1555 1555 1555 1555 1555 1555 1554 1554 1554 1554 1554 1553 1553 1553 1553 1553 1552 1551 1551 1550 1550 1549 1549 1548 1547 1545 1545
1511 1513 1514 1517 1519 1520 1522 1524 1525 1526 1528 1528 1530 1531 1532 1534 1535 1536 1537 1539 1540 1541 1542 1543 1543 1544 1545 1546 1546 1547 1548 1548 1549 1549 1549 1549 1550 1550 1551 1551 1551 1552 1553 1553 1554 1554 1554 1555 1555 1555 1556 1556 1556 1556 1556 1556 1556 1557 1557 1556 1556 1556 1556 1556 1555 1555 1555 1555 1555 1554 1554 1554 1554 1554 1553 1553 1552 1552 1551 1550 1550 1549 1548 1546 1546
1511 1513 1515 1518 1519 1521 1523 1524 1525 1526 1528 1529 1530 1531 1533 1534 1536 1537 1538 1539 1540 1541 1542 1543 1544 1545 1546 1546 1547 1548 1549 1549 1549 1549 1550 1550 1550 1551 1551 1551 1552 1552 1553 1554 1554 1555 1555 1555 1556 1556 1557 1557 1557 1557 1557 1558 1558 1558 1558 1558 1557 1557 1557 1557 1557 1557 1557 1556 1555 1556 1557 1556 1556 1555 1555 1554 1554 1553 1552 1552 1551 1550 1549 1548 1547
1512 1513 1515 1518 1520 1521 1523 1524 1526 1527 1528 1529 1530 1531 1533 1535 1536 1537 1539 1540 1541 1542 1543 1544 1545 1545 1546 1547 1548 1549 1550 1550 1550 1550 1550 1551 1551 1551 1552 1552 1552 1552 1553 1554 1555 1555 1555 1556 1556 1557 1557 1558 1558 1558 1558 1559 1559 1559 1559 1559 1558 1558 1558 1558 1558 1558 1558 1557 1557 1559 1560 1558 1557 1556 1556 1555 1555 1554 1554 1553 1552 1551 1550 1549 1549
1511 1513 1516 1518 1520 1522 1523 1525 1526 1527 1528 1529 1530 1532 1533 1535 1536 1538 1539 1540 1542 1543 1544 1545 1545 1546 1546 1547 1548 1549 1550 1551 1551 1551 1551 1551 1552 1552 1552 1552 1552 1553 1553 1554 1555 1555 1555 1556 1556 1557 1558 1558 1559 1559 1559 1560 1560 1560 1560 1560 1560 1559 1559 1559 1559 1559 1559 1559 1560 1562 1563 1561 1559 1558 1557 1557 1556 1556 1555 1555 1554 1553 1552 1551 1550
1512 1514 1516 1518 1520 1522 1523 1525 1526 1527 1528 1529 1531 1532 1534 1535 1537 1538 1539 1540 1542 1543 1544 1545 1546 1546 1547 1548 1549 1550 1551 1551 1551 1551 1552 1552 1552 1553 1553 1553 1553 1553 1553 1554 1555 1555 1556 1556 1557 1557 1558 1559 1559 1560 1560 1561 1561 1561 1561 1561 1561 1561 1561 1560 1560 1560 1559 1561 1563 1564 1564 1563 1561 1559 1558 1558 1558 1557 1557 1556 1555 1555 1554 1553 1552
1514 1515 1517 1519 1520 1522 1524 1525 1527 1528 1529 1530 1531 1533 1535 1536 1537 1539 1540 1541 1542 1543 1544 1545 1546 1547 1548 1548 1549 1550 1551 1551 1551 1552 1552 1552 1553 1553 1554 1554 1553 1553 1554 1554 1555 1555 1556 1556 1557 1558 1559 1559 1560 1560 1561 1561 1562 1562 1562 1562 1562 1562 1562 1561 1561 1561 1561 1563 1565 1565 1565 1564 1562 1561 1560 1559 1559 1558 1558 1558 1557 1556 1555 1554 1553
1515 1516 1517 1519 1521 1522 1524 1525 1527 1528 1529 1531 1532 1534 1535 1537 1538 1539 1540 1541 1542 1543 1544 1545 1546 1547 1548 1549 1549 1550 1551 1551 1552 1552 1553 1553 1554 1554 1554 1554 1554 1554 1554 1555 1555 1556 1556 1556 1557 1558 1559 1560 1560 1561 1561 1562 1562 1563 1563 1563 1563 1563 1563 1563 1562 1562 1563 1565 1565 1566 1566 1565 1564 1562 1561 1560 1560 1560 1559 1559 1559 1557 1557 1556 1555
1516 1517 1518 1519 1520 1522 1524 1525 1527 1528 1530 1531 1532 1534 1536 1537 1538 1540 1541 1542 1542 1543 1544 1545 1546 1547 1548 1549 1550 1551 1552 1552 1552 1553 1553 1554 1554 1555 1555 1555 1555 1555 1555 1555 1556 1556 1557 1557 1557 1558 1559 1560 1561 1561 1562 1562 1563 1563 1564 1564 1564 1564 1564 1564 1564 1564 1565 1566 1565 1565 1565 1565 1565 1563 1562 1561 1561 1561 1560 1560 1560 1559 1558 1557 1557
1516 1517 1519 1519 1520 1522 1524 1525 1527 1529 1530 1531 1533 1534 1536 1537 1538 1540 1541 1542 1543 1544 1544 1545 1546 1548 1549 1550 1551 1552 1552 1553 1553 1554 1554 1555 1555 1555 1556 1556 1556 1556 1556 1556 1556 1557 1557 1558 1558 1559 1559 1560 1561 1562 1562 1563 1564 1564 1564 1565 1565 1565 1565 1565 1565 1566 1567 1567 1566 1565 1566 1565 1564 1563 1562 1562 1562 1562 1562 1562 1561 1561 1560 1559 1558
1516 1517 1519 1519 1520 1522 1524 1526 1528 1529 1531 1532 1533 1534 1536 1537 1538 1540 1541 1542 1543 1544 1545 1545 1547 1548 1549 1550 1551 1552 1553 1553 1554 1555 1555 1555 1556 1556 1556 1556 1557 1556 1556 1557 1557 1558 1558 1558 1559 1559 1560 1561 1561 1562 1563 1563 1564 1565 1565 1565 1565 1565 1566 1565 1566 1568 1568 1568 1567 1566 1567 1566 1565 1564 1563 1563 1563 1563 1563 1563 1562 1562 1561 1561 1560
1516 1518 1519 1519 1521 1523 1525 1527 1528 1530 1531 1533 1534 1535 1536 1537 1539 1540 1541 1542 1543 1545 1545 1546 1547 1548 1549 1550 1551 1553 1554 1553 1554 1555 1556 1556 1557 1557 1557 1557 1557 1557 1557 1557 1558 1558 1559 1559 1559 1559 1560 1561 1562 1563 1563 1564 1565 1565 1565 1566 1566 1566 1566 1566 1567 1569 1569 1568 1567 1567 1568 1567 1565 1564 1564 1564 1564 1564 1564 1563 1563 1563 1563 1562 1562
1517 1518 1519 1520 1522 1523 1525 1527 1529 1530 1531 1533 1534 1535 1536 1538 1539 1540 1541 1542 1544 1545 1545 1546 1547 1548 1549 1550 1552 1553 1554 1554 1555 1555 1556 1557 1557 1558 1558 1558 1557 1557 1558 1558 1558 1559 1559 1559 1559 1560 1560 1561 1562 1563 1563 1564 1565 1565 1566 1566 1566 1566 1567 1567 1568 1569 1569 1568 1568 1568 1568 1567 1566 1565 1565 1565 1565 1565 1565 1564 1564 1564 1564 1563 1563
1517 1518 1519 1521 1522 1524 1526 1527 1529 1530 1531 1533 1534 1535 1537 1538 1539 1540 1541 1542 1544 1544 1545 1546 1547 1548 1549 1550 1552 1553 1554 1554 1555 1555 1556 1557 1558 1558 1559 1558 1558 1558 1558 1559 1559 1559 1560 1560 1560 1560 1560 1561 1562 1564 1564 1564 1565 1565 1566 1566 1567 1567 1567 1568 1570 1570 1569 1569 1569 1569 1569 1568 1567 1566 1566 1566 1566 1566 1566 1566 1565 1565 1565 1565 1564
1518 1519 1520 1522 1524 1525 1526 1528 1529 1530 1532 1533 1535 1535 1536 1538 1539 1540 1541 1542 1544 1545 1545 1545 1546 1548 1549 1550 1551 1553 1554 1555 1555 1556 1556 1557 1558 1559 1559 1559 1559 1559 1559 1560 1560 1560 1560 1560 1560 1560 1561 1561 1562 1564 1564 1564 1565 1566 1566 1567 1567 1567 1567 1569 1571 1570 1570 1570 1569 1570 1569 1568 1568 1567 1567 1567 1567 1567 1567 1567 1566 1566 1566 1566 1565
1518 1519 1520 1523 1525 1526 1527 1528 1529 1531 1532 1534 1535 1536 1537 1538 1539 1541 1542 1543 1544 1545 1545 1546 1546 1548 1549 1550 1551 1552 1554 1555 1555 1556 1556 1557 1558 1559 1559 1559 1560 1560 1560 1560 1560 1560 1560 1561 1561 1561 1561 1562 1562 1564 1565 1565 1565 1566 1567 1567 1567 1568 1568 1569 1571 1571 1570 1570 1570 1571 1570 1569 1568 1568 1568 1568 1568 1568 1568 1568 1568 1567 1567 1567 1567
1519 1519 1521 1523 1525 1527 1528 1529 1530 1531 1533 1534 1535 1536 1537 1539 1540 1542 1543 1544 1545 1545 1546 1547 1547 1548 1549 1550 1551 1552 1554 1555 1556 1556 1557 1557 1558 1559 1559 1560 1560 1560 1560 1561 1561 1561 1561 1561 1561 1561 1561 1562 1562 1563 1565 1565 1566 1566 1567 1568 1568 1568 1568 1569 1571 1571 1570 1570 1571 1571 1570 1569 1569 1568 1568 1568 1568 1568 1568 1568 1569 1569 1568 1568 1568
1519 1520 1522 1524 1526 1528 1528 1529 1530 1531 1533 1533 1534 1536 1538 1540 1541 1542 1543 1544 1545 1546 1547 1548 1548 1549 1549 1550 1551 1553 1554 1555 1555 1556 1556 1557 1558 1558 1559 1560 1560 1561 1561 1561 1561 1561 1561 1561 1561 1561 1561 1562 1562 1563 1564 1565 1566 1567 1567 1568 1568 1569 1569 1570 1572 1572 1571 1571 1571 1571 1570 1569 1569 1569 1569 1569 1569 1569 1569 1569 1569 1569 1569 1569 1569
1520 1522 1523 1525 1526 1528 1529 1529 1531 1532 1532 1534 1535 1536 1538 1540 1542 1543 1544 1544 1546 1547 1547 1548 1549 1550 1550 1550 1551 1552 1553 1554 1555 1556 1556 1557 1558 1558 1559 1560 1560 1561 1561 1561 1561 1561 1561 1561 1561 1561 1561 1562 1562 1563 1563 1565 1566 1567 1568 1568 1569 1569 1570 1571 1572 1572 1572 1571 1571 1571 1569 1569 1569 1569 1569 1569 1569 1569 1569 1569 1570 1570 1570 1570 1570
1520 1522 1523 1525 1527 1528 1530 1530 1531 1532 1533 1534 1536 1538 1540 1541 1542 1543 1544 1545 1546 1547 1548 1549 1550 1550 1550 1551 1551 1552 1554 1555 1555 1556 1556 1557 1558 1558 1559 1560 1560 1561 1561 1561 1561 1560 1560 1561 1561 1561 1561 1562 1562 1563 1563 1564 1565 1567 1568 1569 1569 1570 1570 1571 1571 1572 1572 1572 1572 1571 1569 1569 1569 1569 1569 1569 1569 1569 1570 1570 1570 1570 1570 1570 1570
1520 1522 1523 1526 1527 1529 1530 1531 1531 1531 1533 1535 1537 1538 1540 1542 1542 1544 1544 1546 1547 1548 1548 1549 1550 1550 1551 1551 1551 1552 1553 1554 1555 1555 1556 1557 1558 1558 1558 1559 1560 1560 1561 1561 1561 1560 1561 1561 1561 1561 1561 1562 1562 1563 1564 1565 1565 1566 1568 1569 1570 1570 1571 1571 1571 1573 1573 1573 1572 1571 1569 1569 1569 1569 1569 1569 1569 1569 1570 1570 1570 1570 1570 1571 1571
1520 1522 1524 1526 1528 1529 1531 1531 1531 1531 1533 1535 1536 1538 1540 1542 1543 1544 1545 1546 1548 1548 1548 1549 1550 1551 1551 1552 1551 1551 1552 1553 1554 1555 1556 1557 1558 1558 1558 1559 1560 1560 1560 1560 1561 1561 1561 1561 1561 1562 1562 1562 1563 1565 1566 1566 1566 1566 1567 1569 1570 1570 1571 1571 1572 1573 1573 1573 1572 1571 1570 1569 1569 1569 1569 1569 1570 1569 1570 1570 1570 1570 1570 1571 1571
1520 1522 1524 1527 1528 1529 1531 1531 1532 1532 1533 1535 1537 1538 1540 1543 1544 1545 1546 1547 1547 1547 1547 1549 1550 1551 1552 1552 1552 1552 1552 1553 1554 1555 1555 1556 1557 1558 1558 1559 1559 1559 1560 1560 1560 1560 1561 1561 1561 1561 1562 1562 1564 1565 1566 1567 1567 1567 1568 1569 1570 1570 1570 1571 1572 1573 1573 1573 1571 1571 1570 1570 1569 1569 1569 1569 1569 1569 1570 1570 1570 1570 1570 1571 1571
1520 1522 1524 1526 1527 1529 1530 1530 1531 1533 1534 1536 1538 1540 1541 1543 1544 1545 1547 1547 1547 1547 1547 1549 1551 1552 1552 1552 1552 1552 1553 1554 1555 1555 1556 1556 1557 1558 1558 1558 1558 1559 1559 1559 1560 1560 1560 1561 1561 1561 1562 1562 1563 1564 1565 1566 1566 1567 1568 1568 1569 1569 1570 1571 1572 1573 1573 1572 1571 1571 1570 1570 1570 1569 1569 1569 1569 1569 1569 1569 1570 1570 1570 1571 1571
1520 1522 1525 1526 1527 1528 1529 1530 1532 1533 1535 1537 1538 1540 1541 1542 1544 1546 1548 1548 1548 1548 1549 1550 1551 1552 1552 1552 1553 1553 1553 1554 1555 1556 1556 1557 1558 1558 1558 1558 1559 1559 1559 1560 1560 1560 1560 1561 1561 1561 1562 1562 1563 1563 1564 1565 1565 1567 1567 1568 1569 1569 1570 1571 1571 1572 1572 1571 1571 1571 1570 1570 1570 1569 1569 1569 1569 1569 1569 1569 1569 1570 1570 1571 1571
1520 1522 1524 1526 1527 1529 1531 1532 1533 1534 1536 1537 1538 1540 1541 1542 1545 1547 1548 1548 1548 1548 1549 1550 1551 1552 1552 1552 1553 1553 1553 1553 1554 1555 1556 1557 1558 1558 1559 1559 1559 1559 1560 1560 1560 1560 1561 1561 1561 1561 1561 1562 1563 1563 1564 1564 1565 1566 1567 1567 1568 1569 1570 1570 1571 1572 1572 1571 1570 1571 1570 1570 1570 1569 1569 1569 1569 1569 1569 1569 1569 1570 1570 1570 1571
1520 1521 1524 1525 1527 1529 1531 1532 1534 1536 1537 1537 1538 1540 1542 1543 1545 1546 1547 1547 1548 1548 1549 1550 1551 1552 1552 1552 1552 1553 1553 1553 1554 1555 1556 1557 1558 1558 1558 1558 1559 1560 1560 1560 1560 1560 1560 1561 1561 1561 1561 1562 1562 1563 1564 1564 1564 1565 1567 1567 1568 1569 1569 1570 1571 1571 1572 1571 1570 1570 1570 1570 1570 1569 1569 1569 1569 1569 1569 1569 1569 1569 1569 1570 1570
1520 1522 1524 1524 1526 1528 1531 1532 1534 1536 1537 1538 1539 1541 1543 1543 1544 1545 1546 1547 1547 1548 1549 1550 1551 1552 1552 1552 1552 1553 1553 1554 1554 1555 1556 1556 1556 1556 1557 1557 1557 1558 1559 1559 1559 1559 1560 1560 1561 1561 1561 1562 1562 1562 1563 1563 1564 1565 1566 1567 1567 1568 1569 1569 1570 1571 1571 1571 1570 1570 1570 1570 1569 1569 1569 1569 1569 1568 1568 1569 1568 1568 1569 1570 1570
1521 1523 1524 1524 1526 1529 1531 1532 1533 1536 1538 1538 1539 1541 1543 1543 1544 1545 1545 1546 1547 1547 1549 1550 1551 1551 1552 1552 1552 1552 1553 1553 1554 1555 1555 1555 1555 1555 1556 1556 1557 1557 1557 1558 1558 1559 1559 1559 1560 1561 1561 1561 1561 1561 1562 1563 1564 1564 1565 1566 1567 1567 1568 1568 1569 1570 1571 1571 1570 1569 1569 1569 1569 1569 1569 1569 1569 1568 1568 1568 1568 1568 1568 1569 1569
1523 1525 1525 1525 1527 1529 1531 1532 1532 1535 1537 1538 1539 1541 1543 1544 1544 1545 1545 1546 1546 1547 1548 1549 1550 1551 1551 1551 1551 1552 1552 1552 1553 1554 1553 1553 1553 1554 1555 1556 1556 1556 1556 1556 1557 1557 1558 1558 1559 1559 1560 1561 1561 1560 1561 1563 1564 1564 1565 1566 1566 1567 1568 1568 1569 1569 1570 1570 1569 1569 1569 1569 1569 1569 1568 1568 1568 1568 1568 1568 1568 1568 1568 1568 1569
1522 1523 1524 1526 1527 1528 1530 1531 1532 1534 1536 1537 1538 1540 1542 1544 1544 1546 1546 1546 1546 1547 1548 1549 1550 1551 1551 1551 1551 1551 1552 1552 1553 1552 1552 1552 1552 1553 1554 1554 1555 1555 1555 1555 1556 1556 1556 1556 1557 1558 1558 1559 1560 1560 1561 1562 1563 1564 1564 1565 1566 1566 1567 1568 1568 1569 1569 1569 1569 1568 1568 1568 1568 1568 1568 1568 1568 1568 1567 1567 1567 1567 1568 1568 1568
1519 1520 1522 1524 1526 1527 1529 1530 1531 1533 1535 1536 1538 1539 1542 1544 1544 1546 1546 1545 1546 1546 1547 1548 1549 1549 1550 1550 1551 1551 1551 1552 1551 1551 1550 1551 1551 1552 1553 1553 1554 1554 1554 1554 1554 1554 1554 1554 1555 1556 1556 1557 1558 1559 1560 1561 1562 1562 1563 1564 1565 1566 1567 1567 1568 1568 1568 1568 1568 1567 1567 1567 1568 1568 1568 1568 1568 1567 1567 1567 1567 1567 1567 1567 1568
1516 1518 1520 1522 1524 1526 1528 1529 1531 1533 1534 1536 1537 1539 1541 1543 1544 1545 1545 1545 1545 1546 1546 1547 1548 1549 1549 1549 1550 1550 1550 1550 1550 1550 1550 1550 1550 1551 1552 1552 1552 1553 1553 1553 1553 1552 1552 1552 1553 1554 1555 1556 1558 1559 1560 1561 1561 1562 1562 1563 1564 1565 1566 1567 1567 1567 1567 1567 1567 1567 1567 1567 1567 1567 1568 1568 1568 1567 1567 1566 1566 1567 1567 1567 1568
1515 1516 1518 1520 1522 1525 1527 1529 1531 1532 1534 1536 1537 1538 1540 1541 1543 1544 1544 1544 1545 1546 1546 1547 1548 1548 1549 1549 1549 1549 1549 1549 1549 1549 1549 1550 1550 1550 1551 1551 1551 1552 1552 1552 1552 1551 1551 1551 1551 1553 1554 1556 1558 1559 1560 1561 1561 1562 1561 1562 1563 1564 1565 1566 1566 1566 1566 1566 1566 1566 1566 1567 1567 1567 1567 1567 1568 1567 1567 1566 1567 1567 1567 1568 1568
1515 1516 1517 1519 1521 1524 1527 1529 1531 1533 1534 1536 1536 1538 1539 1540 1542 1543 1544 1544 1545 1546 1547 1547 1548 1548 1548 1548 1549 1549 1548 1548 1549 1549 1549 1549 1550 1550 1550 1550 1550 1551 1551 1552 1552 1552 1551 1551 1551 1552 1553 1555 1558 1559 1559 1560 1560 1561 1561 1561 1562 1563 1564 1565 1565 1566 1566 1566 1566 1566 1565 1566 1566 1566 1566 1566 1567 1567 1567 1567 1567 1568 1568 1569 1569
1515 1516 1517 1519 1521 1524 1527 1530 1532 1533 1534 1536 1537 1538 1539 1540 1542 1543 1543 1544 1545 1546 1547 1547 1548 1548 1548 1549 1549 1548 1548 1548 1548 1549 1549 1549 1549 1549 1549 1549 1549 1550 1551 1551 1552 1552 1551 1551 1551 1551 1553 1555 1558 1559 1559 1559 1560 1560 1560 1561 1561 1561 1563 1563 1564 1565 1565 1565 1565 1565 1565 1565 1565 1565 1565 1565 1566 1566 1566 1567 1568 1569 1570 1570 1570
1515 1516 1518 1520 1521 1525 1528 1530 1531 1533 1535 1536 1537 1538 1539 1540 1541 1542 1543 1544 1545 1546 1547 1547 1548 1548 1548 1548 1548 1548 1548 1548 1548 1548 1548 1548 1548 1548 1549 1549 1549 1550 1550 1551 1551 1551 1551 1551 1550 1551 1553 1555 1557 1558 1559 1559 1559 1560 1559 1560 1560 1560 1561 1562 1562 1563 1564 1564 1564 1564 1565 1565 1565 1564 1564 1565 1565 1564 1565 1566 1567 1569 1570 1571 1571
1514 1516 1518 1519 1522 1525 1529 1531 1532 1534 1535 1535 1536 1537 1539 1540 1541 1541 1542 1544 1545 1546 1547 1547 1547 1548 1548 1548 1548 1548 1548 1548 1547 1547 1547 1547 1547 1547 1548 1549 1549 1549 1550 1550 1550 1550 1550 1550 1551 1552 1553 1554 1556 1556 1557 1558 1558 1558 1558 1559 1559 1560 1560 1560 1561 1562 1563 1563 1563 1564 1564 1564 1565 1564 1564 1564 1563 1563 1564 1565 1567 1568 1569 1571 1571
1514 1515 1517 1519 1522 1526 1529 1530 1531 1532 1533 1533 1535 1536 1538 1539 1540 1541 1542 1544 1545 1545 1546 1547 1547 1547 1547 1547 1547 1548 1548 1548 1548 1547 1547 1547 1547 1547 1547 1548 1548 1549 1549 1550 1550 1550 1550 1550 1551 1552 1553 1554 1555 1555 1556 1557 1557 1557 1557 1558 1558 1559 1559 1559 1560 1561 1562 1562 1563 1563 1563 1564 1564 1564 1563 1563 1562 1562 1563 1564 1565 1566 1568 1569 1570
1514 1515 1516 1518 1521 1524 1526 1527 1528 1529 1530 1532 1534 1536 1537 1539 1539 1541 1543 1544 1545 1545 1546 1547 1547 1547 1547 1547 1547 1547 1548 1548 1548 1548 1548 1547 1547 1547 1547 1548 1548 1548 1549 1549 1550 1550 1550 1551 1551 1552 1553 1554 1554 1555 1555 1556 1557 1557 1557 1557 1557 1557 1558 1559 1560 1561 1562 1562 1562 1563 1563 1563 1563 1563 1563 1562 1562 1562 1562 1563 1565 1565 1568 1569 1569
1513 1515 1516 1518 1520 1522 1523 1524 1525 1527 1529 1531 1533 1535 1536 1538 1539 1541 1543 1544 1545 1546 1546 1546 1546 1547 1547 1547 1547 1547 1548 1548 1548 1548 1548 1548 1548 1548 1548 1548 1548 1548 1549 1549 1550 1550 1550 1551 1552 1552 1553 1554 1554 1554 1554 1555 1556 1556 1556 1557 1557 1557 1557 1558 1560 1561 1562 1562 1563 1563 1563 1563 1563 1563 1562 1562 1562 1562 1562 1563 1564 1565 1567 1568 1569
1513 1515 1516 1517 1519 1521 1521 1523 1525 1526 1529 1530 1532 1534 1535 1537 1539 1540 1542 1543 1544 1545 1546 1546 1546 1547 1547 1547 1547 1547 1547 1548 1548 1548 1548 1548 1548 1548 1548 1548 1548 1548 1549 1549 1550 1550 1550 1551 1552 1553 1553 1554 1554 1554 1554 1554 1555 1555 1555 1556 1556 1556 1556 1558 1560 1561 1561 1562 1562 1563 1563 1564 1564 1563 1562 1561 1562 1562 1562 1562 1563 1564 1565 1566 1567
1514 1515 1515 1516 1518 1520 1521 1523 1524 1526 1528 1530 1531 1533 1534 1536 1538 1539 1540 1542 1543 1544 1545 1546 1546 1547 1547 1547 1547 1547 1547 1548 1548 1548 1548 1548 1548 1548 1548 1549 1549 1549 1549 1549 1550 1550 1550 1551 1551 1552 1553 1554 1554 1553 1553 1553 1554 1555 1555 1555 1555 1555 1555 1557 1559 1560 1561 1561 1562 1562 1562 1563 1563 1562 1562 1561 1561 1561 1561 1562 1562 1563 1563 1564 1565
1513 1514 1514 1515 1516 1519 1521 1523 1524 1526 1528 1529 1530 1531 1533 1535 1536 1538 1540 1541 1542 1544 1545 1546 1546 1547 1547 1547 1547 1547 1547 1547 1548 1548 1548 1547 1547 1548 1548 1549 1549 1549 1549 1549 1550 1550 1550 1551 1551 1551 1552 1553 1553 1553 1552 1552 1553 1554 1555 1555 1554 1555 1555 1556 1558 1560 1560 1560 1561 1561 1561 1561 1562 1561 1561 1560 1560 1561 1560 1561 1561 1562 1563 1563 1563
1511 1512 1513 1514 1516 1518 1520 1522 1523 1525 1527 1528 1529 1530 1533 1534 1536 1537 1539 1540 1542 1544 1545 1545 1546 1547 1547 1547 1547 1547 1547 1547 1548 1548 1548 1548 1548 1548 1548 1549 1549 1550 1550 1550 1550 1550 1550 1551 1551 1551 1551 1552 1552 1552 1552 1552 1552 1553 1554 1555 1554 1555 1555 1556 1558 1559 1559 1560 1560 1560 1560 1560 1560 1560 1560 1560 1560 1560 1560 1560 1560 1561 1562 1561 1562
1509 1510 1512 1513 1516 1517 1520 1522 1523 1525 1527 1528 1529 1530 1532 1534 1535 1537 1539 1540 1542 1543 1544 1545 1546 1546 1546 1546 1546 1547 1547 1547 1548 1548 1548 1548 1548 1549 1549 1549 1550 1550 1550 1550 1550 1551 1551 1551 1551 1551 1551 1551 1552 1552 1553 1552 1552 1553 1553 1554 1554 1554 1555 1556 1557 1558 1559 1560 1560 1560 1559 1559 1559 1560 1560 1560 1560 1560 1559 1559 1560 1561 1561 1561 1561
1507 1509 1511 1513 1516 1518 1520 1522 1523 1525 1527 1528 1529 1531 1533 1534 1535 1537 1539 1540 1542 1542 1543 1544 1545 1546 1546 1546 1547 1547 1547 1547 1548 1548 1548 1548 1549 1549 1549 1549 1550 1550 1550 1551 1551 1551 1551 1551 1551 1551 1552 1552 1552 1553 1553 1552 1553 1553 1553 1554 1554 1554 1555 1556 1557 1557 1558 1559 1560 1560 1559 1559 1559 1559 1559 1559 1560 1560 1559 1560 1560 1561 1561 1561 1561
1506 1508 1510 1512 1515 1518 1520 1522 1524 1526 1528 1530 1531 1532 1534 1534 1535 1537 1538 1540 1541 1541 1543 1544 1545 1545 1546 1546 1546 1547 1547 1547 1547 1548 1548 1549 1549 1549 1549 1549 1550 1550 1550 1551 1551 1551 1552 1552 1552 1552 1552 1552 1552 1552 1553 1552 1553 1553 1554 1554 1554 1555 1555 1556 1557 1558 1558 1558 1559 1560 1560 1559 1559 1559 1559 1559 1559 1560 1560 1561 1561 1561 1561 1561 1561
1505 1507 1509 1511 1515 1517 1519 1521 1523 1525 1529 1532 1535 1535 1535 1535 1535 1537 1538 1539 1540 1541 1542 1543 1544 1545 1545 1546 1546 1547 1547 1547 1547 1548 1548 1548 1549 1549 1549 1549 1550 1550 1550 1551 1551 1551 1551 1552 1552 1552 1552 1552 1552 1552 1552 1552 1552 1552 1553 1554 1554 1555 1556 1556 1556 1557 1558 1558 1558 1560 1561 1561 1560 1560 1560 1561 1561 1561 1561 1562 1562 1562 1562 1563 1562
1504 1505 1508 1512 1514 1516 1518 1520 1522 1525 1530 1534 1537 1538 1537 1536 1536 1537 1538 1539 1539 1540 1541 1542 1543 1544 1545 1546 1546 1547 1547 1547 1547 1548 1548 1548 1548 1549 1549 1550 1550 1550 1551 1551 1551 1552 1552 1552 1552 1553 1553 1553 1553 1553 1552 1552 1552 1552 1553 1554 1555 1556 1556 1557 1557 1558 1558 1559 1559 1560 1561 1561 1561 1561 1562 1562 1563 1563 1563 1563 1563 1563 1563 1563 1563